Quillayute, WA
on Saturday, November 17, 2012

Saturday
Previous Day Next Day
Daily Summary
 ActualAverageRecord
Temperature
Mean Temperature °F 44°F  
Max Temperature 55°F 50°F 60°F (2008)
Min Temperature 43°F 38°F 24°F (2014)
Degree Days
Heating Degree Days 16 21  
Month to date heating degree days 334  
Since 1 July heating degree days 1424  
Cooling Degree Days 0 0  
Month to date cooling degree days 0  
Year to date cooling degree days 19  
Moisture
Dew Point 46°F   
Average Humidity 97    
Maximum Humidity 100    
Minimum Humidity 54    
Precipitation
Precipitation 1.37 in 0.53 in 1.94 in (1995)
Month to date precipitation 8.62  
Year to date precipitation 79.65  
Wind
Wind Speed 10 mph   
Max Wind Speed 20 mph   
Max Gust Speed 38 mph   
Visibility 3 miles   
Events Rain   

Key: T is trace of precipitation, MM is missing value
Source: NWS Daily Summary
Time(PST)TemperatureDew PointHumidity Pressure Visibility Wind DirectionWind SpeedGust SpeedPrecipitationEvents Conditions
12:53 AM 54.0°F 50.0°F 86% 29.54 in 6.0 miles SSE 15.0 mph 29.9 mph N/A   Overcast
1:53 AM 54.0°F 51.1°F 90% 29.51 in 6.0 miles South 12.7 mph 25.3 mph 0.00 in Rain Light Rain
2:15 AM 53.6°F 53.6°F 100% 29.51 in 2.5 miles SSE 15.0 mph 27.6 mph 0.01 in Rain Light Rain
2:19 AM 53.6°F 53.6°F 100% 29.50 in 5.0 miles Variable 6.9 mph 27.6 mph 0.01 in Rain Light Rain
2:53 AM 53.1°F 52.0°F 96% 29.49 in 7.0 miles SSE 13.8 mph 28.8 mph 0.01 in   Overcast
3:01 AM 53.6°F 51.8°F 94% 29.49 in 5.0 miles South 8.1 mph 28.8 mph 0.00 in Rain Light Rain
3:18 AM 53.6°F 51.8°F 94% 29.48 in 6.0 miles South 12.7 mph 27.6 mph 0.01 in   Overcast
3:30 AM 53.6°F 51.8°F 94% 29.47 in 6.0 miles SSE 12.7 mph 27.6 mph 0.01 in Rain Light Rain
3:53 AM 53.1°F 51.1°F 93% 29.46 in 7.0 miles South 9.2 mph 25.3 mph 0.01 in   Overcast
4:53 AM 54.0°F 51.1°F 90% 29.42 in 7.0 miles SSE 9.2 mph 26.5 mph 0.00 in   Overcast
5:53 AM 53.1°F 51.1°F 93% 29.40 in 7.0 miles SSE 11.5 mph 34.5 mph 0.01 in   Overcast
6:33 AM 53.6°F 51.8°F 94% 29.39 in 1.8 miles SSE 11.5 mph 26.5 mph 0.01 in Rain Light Rain
6:42 AM 51.8°F 51.8°F 100% 29.39 in 1.2 miles South 9.2 mph 23.0 mph 0.04 in Rain Light Rain
6:53 AM 48.9°F 48.9°F 100% 29.42 in 0.8 miles SSW 12.7 mph 25.3 mph 0.18 in Rain Heavy Rain
6:59 AM 48.2°F 46.4°F 93% 29.42 in 1.0 miles SW 15.0 mph 24.2 mph 0.05 in Rain Light Rain
7:02 AM 48.2°F 46.4°F 93% 29.42 in 2.0 miles SSW 13.8 mph 20.7 mph 0.05 in Rain Light Rain
7:09 AM 48.2°F 46.4°F 93% 29.42 in 2.0 miles SSW 8.1 mph 18.4 mph 0.06 in Rain Rain
7:11 AM 46.4°F 46.4°F 100% 29.42 in 1.8 miles SSW 9.2 mph 18.4 mph 0.07 in Rain Rain
7:33 AM 48.2°F 48.2°F 100% 29.42 in 2.5 miles South 5.8 mph - 0.14 in Rain Rain
7:42 AM 48.2°F 48.2°F 100% 29.42 in 1.8 miles SSW 5.8 mph - 0.16 in Rain Light Rain
7:53 AM 48.0°F 48.0°F 100% 29.43 in 1.5 miles South 8.1 mph 16.1 mph 0.20 in Rain Rain
8:17 AM 48.2°F 48.2°F 100% 29.44 in 1.8 miles SSW 10.4 mph 20.7 mph 0.07 in Rain Rain
8:34 AM 48.2°F 46.4°F 93% 29.45 in 1.2 miles SSW 12.7 mph 21.9 mph 0.12 in Rain Rain
8:53 AM 46.9°F 46.9°F 100% 29.46 in 1.2 miles SSW 9.2 mph 18.4 mph 0.17 in Rain Rain
9:16 AM 46.4°F 46.4°F 100% 29.45 in 1.2 miles South 10.4 mph 18.4 mph 0.07 in Rain Rain
9:26 AM 46.4°F 46.4°F 100% 29.46 in 1.2 miles South 12.7 mph 19.6 mph 0.10 in Rain Rain
9:36 AM 46.4°F 46.4°F 100% 29.47 in 1.5 miles SSW 12.7 mph 20.7 mph 0.11 in Rain Light Rain
9:46 AM 46.4°F 46.4°F 100% 29.47 in 1.2 miles SSW 11.5 mph 17.3 mph 0.14 in Rain Rain
9:53 AM 46.9°F 46.0°F 97% 29.47 in 1.5 miles South 10.4 mph 18.4 mph 0.15 in Rain Light Rain
10:05 AM 46.4°F 46.4°F 100% 29.48 in 1.2 miles South 9.2 mph - 0.01 in Rain Light Rain
10:13 AM 46.4°F 46.4°F 100% 29.49 in 1.0 miles South 6.9 mph - 0.03 in Rain Rain
10:53 AM 45.0°F 44.1°F 97% 29.51 in 1.2 miles South 6.9 mph - 0.15 in Rain Light Rain
11:09 AM 44.6°F 44.6°F 100% 29.49 in 2.0 miles SE 10.4 mph - 0.01 in Rain Light Rain
11:17 AM 44.6°F 44.6°F 100% 29.48 in 3.0 miles SE 8.1 mph 20.7 mph 0.02 in Rain Light Rain
11:31 AM 44.6°F 44.6°F 100% 29.49 in 1.8 miles SSE 8.1 mph 16.1 mph 0.03 in Rain Light Rain
11:53 AM 44.1°F 44.1°F 100% 29.49 in 2.0 miles SE 9.2 mph 16.1 mph 0.07 in Rain Light Rain
12:02 PM 44.6°F 44.6°F 100% 29.49 in 3.0 miles SSE 8.1 mph 21.9 mph 0.00 in Rain Light Rain
12:32 PM 44.6°F 42.8°F 93% 29.49 in 5.0 miles SE 8.1 mph 17.3 mph 0.00 in   Overcast
12:53 PM 44.1°F 43.0°F 96% 29.49 in 5.0 miles SE 8.1 mph - 0.00 in Rain Light Rain
1:00 PM 44.6°F 42.8°F 93% 29.50 in 2.5 miles SSE 6.9 mph - 0.01 in Rain Light Rain
1:08 PM 44.6°F 42.8°F 93% 29.50 in 1.2 miles SSE 8.1 mph - 0.03 in Rain Rain
1:17 PM 44.6°F 42.8°F 93% 29.51 in 1.8 miles Variable 6.9 mph - 0.04 in Rain Light Rain
1:25 PM 44.6°F 44.6°F 100% 29.50 in 2.0 miles SE 5.8 mph - 0.06 in Rain Light Rain
1:40 PM 44.6°F 42.8°F 93% 29.50 in 4.0 miles SSE 10.4 mph 16.1 mph 0.06 in Rain Light Rain
1:53 PM 44.1°F 43.0°F 96% 29.49 in 2.0 miles SSE 13.8 mph 21.9 mph 0.07 in Rain Light Rain
1:56 PM 44.6°F 42.8°F 93% 29.50 in 1.2 miles SSE 10.4 mph 21.9 mph 0.00 in Rain Rain
2:12 PM 44.6°F 42.8°F 93% 29.50 in 1.2 miles SE 8.1 mph 18.4 mph 0.03 in Rain Light Rain
2:17 PM 44.6°F 42.8°F 93% 29.50 in 2.0 miles SW 4.6 mph 18.4 mph 0.03 in Rain Light Rain
2:20 PM 44.6°F 42.8°F 93% 29.50 in 4.0 miles Calm Calm - 0.03 in Rain Light Rain
2:41 PM 44.6°F 44.6°F 100% 29.50 in 1.8 miles SE 8.1 mph 17.3 mph 0.04 in Rain Light Rain
2:44 PM 44.6°F 44.6°F 100% 29.50 in 2.0 miles SE 9.2 mph 17.3 mph 0.04 in Rain Light Rain
2:53 PM 45.0°F 44.1°F 97% 29.50 in 5.0 miles SE 8.1 mph 16.1 mph 0.04 in   Mostly Cloudy
3:33 PM 44.6°F 44.6°F 100% 29.50 in 5.0 miles SE 6.9 mph - 0.00 in   Mostly Cloudy
3:53 PM 45.0°F 44.1°F 97% 29.51 in 5.0 miles Variable 4.6 mph - 0.00 in Rain Light Rain
4:07 PM 44.6°F 44.6°F 100% 29.50 in 5.0 miles SE 6.9 mph 19.6 mph 0.00 in Rain Light Rain
4:14 PM 44.6°F 42.8°F 93% 29.50 in 5.0 miles SSE 9.2 mph 19.6 mph 0.00 in   Overcast
4:28 PM 44.6°F 44.6°F 100% 29.50 in 4.0 miles SSE 10.4 mph - 0.00 in   Mostly Cloudy
4:53 PM 45.0°F 44.1°F 97% 29.50 in 3.0 miles SE 12.7 mph 18.4 mph 0.00 in Rain Light Rain
5:05 PM 44.6°F 44.6°F 100% 29.49 in 2.5 miles SE 13.8 mph 21.9 mph 0.03 in Rain Light Rain
5:11 PM 44.6°F 44.6°F 100% 29.49 in 5.0 miles SE 13.8 mph 20.7 mph 0.03 in Rain Light Rain
5:40 PM 44.6°F 44.6°F 100% 29.49 in 4.0 miles SSE 11.5 mph 25.3 mph 0.03 in Rain Light Rain
5:48 PM 44.6°F 44.6°F 100% 29.48 in 1.8 miles SE 10.4 mph 19.6 mph 0.05 in Rain Heavy Rain
5:53 PM 45.0°F 45.0°F 100% 29.50 in 1.5 miles South 8.1 mph 18.4 mph 0.07 in Rain Rain
6:00 PM 44.6°F 44.6°F 100% 29.51 in 1.2 miles South 10.4 mph 18.4 mph 0.04 in Rain Heavy Rain
6:14 PM 44.6°F 44.6°F 100% 29.51 in 2.0 miles SSE 9.2 mph 23.0 mph 0.10 in Rain Light Rain
6:22 PM 44.6°F 44.6°F 100% 29.51 in 5.0 miles SSE 6.9 mph 18.4 mph 0.11 in Rain Light Rain
6:31 PM 44.6°F 44.6°F 100% 29.52 in 1.8 miles Variable 6.9 mph - 0.12 in Rain Rain
6:41 PM 44.6°F 44.6°F 100% 29.52 in 4.0 miles South 11.5 mph 21.9 mph 0.17 in Rain Light Rain
6:53 PM 45.0°F 45.0°F 100% 29.52 in 5.0 miles SSE 12.7 mph 26.5 mph 0.17 in   Overcast
6:59 PM 44.6°F 44.6°F 100% 29.52 in 2.5 miles South 12.7 mph 26.5 mph 0.01 in Rain Light Rain
7:05 PM 44.6°F 44.6°F 100% 29.52 in 3.0 miles Variable 6.9 mph 19.6 mph 0.03 in Rain Light Rain
7:12 PM 46.4°F 44.6°F 93% 29.53 in 4.0 miles SSW 8.1 mph - 0.03 in Rain Light Rain
7:21 PM 46.4°F - N/A% 29.53 in 4.0 miles SW 10.4 mph 16.1 mph 0.03 in Rain Light Rain
7:30 PM 46.4°F - N/A% 29.53 in 6.0 miles SSW 8.1 mph 16.1 mph 0.03 in   Haze
7:53 PM 46.0°F 46.0°F 100% 29.55 in 6.0 miles SSW 9.2 mph 17.3 mph 0.04 in   Mostly Cloudy
8:14 PM 46.4°F 46.4°F 100% 29.56 in 2.5 miles SW 15.0 mph 24.2 mph 0.00 in Rain Light Rain
8:17 PM 46.4°F 46.4°F 100% 29.56 in 1.8 miles SW 16.1 mph 24.2 mph 0.02 in Rain Rain
8:24 PM 44.6°F 44.6°F 100% 29.56 in 3.0 miles SW 8.1 mph 23.0 mph 0.02 in Rain Light Rain
8:32 PM 44.6°F 44.6°F 100% 29.56 in 5.0 miles SSW 6.9 mph - 0.02 in   Scattered Clouds
8:53 PM 45.0°F - N/A% 29.57 in 5.0 miles SSW 4.6 mph - 0.02 in   Haze
9:53 PM 43.0°F - N/A% 29.57 in 5.0 miles South 3.5 mph - N/A   Haze
10:53 PM 45.0°F - N/A% 29.58 in 6.0 miles South 8.1 mph - 0.01 in   Haze
11:53 PM 45.0°F - N/A% 29.60 in 6.0 miles SW 9.2 mph - N/A   Haze
Moon Phase
Nov. 17 Nov. 20 Nov. 28 Dec. 06 Dec. 13
Sunrise:07:28 AM (PST) Moon Rise:11:17 AM (PST)11/17
Sunset:04:37 PM (PST) Moon Set:08:56 PM (PST)11/17

Copyright © 2014 The Weather Underground, Inc.